SCP
0 0 0 0 0 0 0 0 0 0 0 0 0 0 0 0 0 0 0 0 0 0 0 0 0 0 0
0 0 0 0 0 0 0 0 0 0 0 0 0 0 0 0 0 0 0 0 0 0 0 0 0 0 0
0 0 0 0 0 0 0 0 0 0 0 0 0 0 0 0 0 0 0 0 0 0 0 0 0 0 0
0 0 0 0 0 0 0 0 0 0 0 0 0 0 0 0 0 0 0 0 0 0 0 0 0 0 0
0 0 0 0 0 0 0 0 0 0 0 0 0 0 0 0 0 0 0 0 0 0 0 0 0 0 0
0 0 0 0 0 0 0 0 0 0 0 0 0 0 0 0 0 0 0 0 0 0 0 0 0 0 0
0 0 0 0 0 0 0 0 0 0 0 0 0 0 0 0 0 0 0 0 0 0 0 0 0 0 0
0 0 0 0 0 0 0 0 0 0 0 0 0 0 0 0 0 0 0 0 0 0 0 0 0 0 0
0 0 0 0 0 0 0 0 0 0 0 0 0 0 0 0 0 0 0 0 0 0 0 0 0 0 0
0 0 0 0 0 0 0 0 0 0 0 0 0 0 0 0 0 0 0 0 0 0 0 0 0 0 0
0 0 0 0 0 0 0 0 0 0 0 0 0 0 0 0 0 0 0 0 0 0 0 0 0 0 0
0 0 0 0 0 0 0 0 0 0 0 0 0 0 0 0 0 0 0 0 0 0 0 0 0 0 0
0 0 0 0 0 0 0 0 0 0 0 0 0 0 0 0 0 0 0 0 0 0 0 0 0 0 0
0 0 0 0 0 0 0 0 0 0 0 0 0 0 0 0 0 0 0 0 0 0 0 0 0 0 0
0 0 0 0 0 0 0 0 0 0 0 0 0 0 0 0 0 0 0 0 0 0 0 0 0 0 0
0 0 0 0 0 0 0 0 0 0 0 0 0 0 0 0 0 0 0 0 0 0 0 0 0 0 0
0 0 0 0 0 0 0 0 0 0 0 0 0 0 0 0 0 0 0 0 0 0 0 0 0 0 0
Wind_Speed_500mb
36 40 42 46 55 60 56 51 49 48 42 37 41 41 43 41 40 43 44 45 47 48 46 45 44 40 40
38 44 50 52 50 55 51 49 46 41 40 40 38 39 39 40 41 42 44 46 46 45 45 45 45 44 43
46 43 46 40 38 48 49 47 45 45 40 38 33 36 38 39 42 43 45 45 44 43 46 46 46 48 48
47 49 51 52 52 49 50 47 47 42 38 33 33 36 37 41 42 42 44 41 42 44 44 45 51 51 50
43 48 45 49 46 59 52 40 37 37 34 33 34 39 40 40 38 38 38 41 43 40 45 49 52 56 58
39 45 52 53 47 54 44 39 37 38 34 35 37 36 34 34 34 35 38 39 36 42 48 51 54 57 58
27 38 43 40 42 38 37 36 34 28 23 28 31 29 31 32 34 35 33 31 39 44 50 52 53 56 61
20 17 19 25 22 23 25 30 27 27 28 26 25 24 27 31 32 29 25 33 39 46 50 51 51 57 63
33 27 26 26 27 29 27 26 27 25 23 22 20 21 26 29 27 25 25 37 42 47 49 47 52 59 59
37 35 33 29 26 25 23 22 20 17 18 16 17 20 14 16 17 27 33 34 44 45 44 47 49 56 57
35 31 30 27 26 23 19 17 16 15 14 15 16 18 15 19 16 22 22 37 39 41 44 44 45 48 54
34 33 30 26 21 17 14 12 11 11 12 14 14 16 19 25 27 29 36 35 40 43 52 45 40 42 43
36 32 26 21 17 13 11 8 8 9 11 12 13 15 20 27 35 39 52 50 36 56 54 49 45 46 52
29 26 22 18 14 11 7 6 7 9 10 12 14 16 17 22 31 38 37 44 50 46 47 45 39 40 44
25 23 20 15 11 7 5 6 8 9 10 13 16 19 20 23 27 29 38 42 46 49 49 48 41 43 38
24 19 15 11 7 4 4 5 7 7 9 15 16 15 13 15 20 35 44 50 51 48 44 50 49 45 39
21 17 12 7 4 2 4 4 3 5 8 13 18 25 31 38 20 38 48 50 55 52 46 48 55 53 39
Wind_Direction_500mb
246 236 234 232 234 235 237 238 249 256 258 266 271 273 275 277 280 284 288 291 292 293 296 297 297 297 300
241 239 238 228 227 236 241 242 248 249 254 263 269 274 273 277 281 285 289 290 293 295 299 299 298 298 301
237 242 222 217 229 233 227 233 238 242 250 259 267 269 272 278 284 289 291 291 295 300 301 299 298 301 303
236 237 224 222 224 225 221 225 234 242 251 258 263 267 274 282 285 286 287 291 296 298 299 299 302 304 304
231 223 225 224 236 226 218 228 236 245 249 250 258 268 275 279 282 284 289 292 297 299 298 301 305 306 304
230 239 234 225 223 218 221 226 233 246 247 256 261 267 272 278 283 286 285 294 299 302 301 304 306 305 303
239 238 232 222 223 215 228 234 236 236 245 252 260 268 274 279 283 282 287 293 300 301 303 307 307 304 305
212 194 206 203 214 238 236 218 221 234 246 258 265 271 276 284 281 272 279 298 303 306 309 310 308 307 308
185 192 198 208 209 203 201 208 222 234 246 257 272 282 289 286 272 253 290 307 310 311 311 310 310 308 312
186 191 191 184 184 193 203 215 228 241 251 266 285 298 301 289 273 262 292 303 311 312 312 318 317 314 317
178 169 173 179 185 191 202 211 226 239 264 276 284 293 290 293 292 286 295 313 315 318 323 329 325 322 320
164 166 171 177 182 189 196 213 233 252 265 276 288 301 311 316 322 320 318 331 330 331 332 335 329 322 317
163 165 165 170 174 184 195 213 242 260 273 290 303 311 320 327 321 333 328 336 338 337 334 338 337 327 322
163 163 163 165 173 183 198 235 264 279 290 296 307 323 320 316 321 325 328 331 332 337 333 337 345 336 331
159 160 161 165 173 185 226 261 273 287 303 316 321 317 324 333 331 326 328 332 341 343 338 336 351 346 339
156 156 157 160 170 209 247 265 278 298 311 304 307 318 327 349 344 342 342 340 341 342 339 335 344 354 343
155 156 160 169 192 221 238 242 281 316 308 328 341 349 351 356 12 358 338 338 335 340 340 339 338 347 347
Wind_Speed_850mb
36 40 42 46 55 60 56 51 49 48 42 37 41 41 43 41 40 43 44 45 47 48 46 45 44 40 40
38 44 50 52 50 55 51 49 46 41 40 40 38 39 39 40 41 42 44 46 46 45 45 45 45 44 43
46 43 46 40 38 48 49 47 45 45 40 38 33 36 38 39 42 43 45 45 44 43 46 46 46 48 48
47 49 51 52 52 49 50 47 47 42 38 33 33 36 37 41 42 42 44 41 42 44 44 45 51 51 50
43 48 45 49 46 59 52 40 37 37 34 33 34 39 40 40 38 38 38 41 43 40 45 49 52 56 58
39 45 52 53 47 54 44 39 37 38 34 35 37 36 34 34 34 35 38 39 36 42 48 51 54 57 58
27 38 43 40 42 38 37 36 34 28 23 28 31 29 31 32 34 35 33 31 39 44 50 52 53 56 61
20 17 19 25 22 23 25 30 27 27 28 26 25 24 27 31 32 29 25 33 39 46 50 51 51 57 63
33 27 26 26 27 29 27 26 27 25 23 22 20 21 26 29 27 25 25 37 42 47 49 47 52 59 59
37 35 33 29 26 25 23 22 20 17 18 16 17 20 14 16 17 27 33 34 44 45 44 47 49 56 57
35 31 30 27 26 23 19 17 16 15 14 15 16 18 15 19 16 22 22 37 39 41 44 44 45 48 54
34 33 30 26 21 17 14 12 11 11 12 14 14 16 19 25 27 29 36 35 40 43 52 45 40 42 43
36 32 26 21 17 13 11 8 8 9 11 12 13 15 20 27 35 39 52 50 36 56 54 49 45 46 52
29 26 22 18 14 11 7 6 7 9 10 12 14 16 17 22 31 38 37 44 50 46 47 45 39 40 44
25 23 20 15 11 7 5 6 8 9 10 13 16 19 20 23 27 29 38 42 46 49 49 48 41 43 38
24 19 15 11 7 4 4 5 7 7 9 15 16 15 13 15 20 35 44 50 51 48 44 50 49 45 39
21 17 12 7 4 2 4 4 3 5 8 13 18 25 31 38 20 38 48 50 55 52 46 48 55 53 39
Wind_Direction_850mb
246 236 234 232 234 235 237 238 249 256 258 266 271 273 275 277 280 284 288 291 292 293 296 297 297 297 300
241 239 238 228 227 236 241 242 248 249 254 263 269 274 273 277 281 285 289 290 293 295 299 299 298 298 301
237 242 222 217 229 233 227 233 238 242 250 259 267 269 272 278 284 289 291 291 295 300 301 299 298 301 303
236 237 224 222 224 225 221 225 234 242 251 258 263 267 274 282 285 286 287 291 296 298 299 299 302 304 304
231 223 225 224 236 226 218 228 236 245 249 250 258 268 275 279 282 284 289 292 297 299 298 301 305 306 304
230 239 234 225 223 218 221 226 233 246 247 256 261 267 272 278 283 286 285 294 299 302 301 304 306 305 303
239 238 232 222 223 215 228 234 236 236 245 252 260 268 274 279 283 282 287 293 300 301 303 307 307 304 305
212 194 206 203 214 238 236 218 221 234 246 258 265 271 276 284 281 272 279 298 303 306 309 310 308 307 308
185 192 198 208 209 203 201 208 222 234 246 257 272 282 289 286 272 253 290 307 310 311 311 310 310 308 312
186 191 191 184 184 193 203 215 228 241 251 266 285 298 301 289 273 262 292 303 311 312 312 318 317 314 317
178 169 173 179 185 191 202 211 226 239 264 276 284 293 290 293 292 286 295 313 315 318 323 329 325 322 320
164 166 171 177 182 189 196 213 233 252 265 276 288 301 311 316 322 320 318 331 330 331 332 335 329 322 317
163 165 165 170 174 184 195 213 242 260 273 290 303 311 320 327 321 333 328 336 338 337 334 338 337 327 322
163 163 163 165 173 183 198 235 264 279 290 296 307 323 320 316 321 325 328 331 332 337 333 337 345 336 331
159 160 161 165 173 185 226 261 273 287 303 316 321 317 324 333 331 326 328 332 341 343 338 336 351 346 339
156 156 157 160 170 209 247 265 278 298 311 304 307 318 327 349 344 342 342 340 341 342 339 335 344 354 343
155 156 160 169 192 221 238 242 281 316 308 328 341 349 351 356 12 358 338 338 335 340 340 339 338 347 347